Location: Marcé
(47.5801°N, 0.3280°W)
Time: 03:25:40
(UTC+01:00)

Vanguard 1 - Pass Details

Date: 07 December 2021
Orbit: 652 x 3830 km, 34.2° (Epoch: 21 January)

Event Time Altitude Azimuth Distance (km) Brightness Sun altitude
Exits shadow 05:15:09 38° 236° (SW) 4,583 12.9 -32.8°
Maximum altitude 05:20:15 42° 209° (SSW) 4,117 12.9 -31.9°
Drops below altitude 10° 05:34:24 10° 145° (SE) 4,949 14.0 -29.5°
Sets 05:37:48 0° 138° (SE) 5,577 14.5 -29.0°
